Temperature
19 18 17 16 15 14 13 13 12 11 11 11 11 11 10 10 10 10 10 10 10 9 9 9 10 10 10 11 11 11 11 12 12 12 11 11 11 11 11 12 12 12 13
19 18 17 16 15 14 14 13 12 12 11 11 10 10 10 10 10 10 9 9 9 9 9 9 9 10 10 11 11 11 11 12 12 12 11 11 10 10 10 10 11 11 11
19 18 17 16 15 15 14 13 12 12 11 11 11 10 10 10 9 9 9 9 9 9 9 9 9 10 10 11 11 11 12 12 12 11 11 10 9 9 9 10 10 10 10
19 18 17 17 16 15 14 13 12 12 12 11 11 10 10 10 9 9 9 9 9 9 9 9 9 10 10 11 11 11 12 12 11 11 10 10 9 9 9 9 9 9 9
19 18 17 17 16 15 14 13 13 12 12 11 11 10 10 10 9 9 9 9 9 9 9 9 9 10 10 11 11 11 11 11 11 10 10 9 9 9 9 9 9 9 9
19 18 18 17 16 16 15 14 13 12 12 11 11 10 10 10 9 9 9 9 9 9 9 9 10 10 10 10 11 11 11 11 10 10 10 9 8 8 8 8 8 8 8
19 18 18 17 16 15 15 14 13 12 12 11 11 10 10 9 9 9 9 10 10 10 9 10 10 10 10 10 10 11 11 10 10 10 9 9 9 8 8 8 8 8 8
19 18 17 17 16 15 14 14 13 13 12 11 11 10 10 9 9 9 10 10 10 10 10 10 10 10 10 10 10 10 10 10 10 10 9 9 9 8 8 9 9 8 8
19 18 17 16 16 15 14 13 13 12 12 11 11 10 10 9 9 9 9 9 10 10 10 10 10 10 10 10 10 10 10 10 9 9 9 9 9 9 8 9 9 9 9
18 18 17 16 15 14 13 13 12 12 11 11 11 10 10 10 9 9 9 9 9 9 9 10 10 10 9 10 10 10 10 9 9 9 9 9 9 9 9 9 9 9 9
18 18 17 15 14 14 13 12 12 11 11 11 10 10 10 9 9 8 8 9 9 9 9 9 9 9 9 9 9 9 9 9 9 9 9 9 9 9 9 9 9 9 9
18 18 17 16 15 13 13 12 11 11 11 11 10 10 10 9 9 9 9 9 9 9 9 9 9 9 9 8 9 9 9 9 9 9 9 9 9 9 9 9 9 9 9
17 17 17 16 15 14 13 12 11 11 11 10 10 10 9 9 9 9 9 9 9 9 8 8 8 8 8 8 9 9 9 9 9 9 9 9 9 9 9 9 8 8 8
17 17 17 16 15 15 13 12 12 11 11 10 10 10 9 9 9 9 9 9 8 8 8 8 8 8 8 8 9 9 9 9 9 9 9 9 9 9 9 9 8 7 7
17 17 16 16 15 15 14 13 12 11 11 11 10 10 9 9 9 9 9 9 9 8 8 8 8 8 8 8 8 9 9 9 9 9 9 9 9 9 9 9 8 8 7
18 17 17 16 15 15 14 14 13 12 11 10 10 10 10 9 9 9 9 9 8 8 8 8 8 7 8 8 8 8 8 8 8 8 9 9 9 9 9 9 9 8 8
18 17 17 16 16 15 14 13 12 12 11 10 10 10 10 9 9 8 8 8 8 8 8 8 7 7 7 7 8 8 8 8 8 8 8 9 9 9 9 9 9 9 8
18 18 17 17 16 15 14 13 12 11 11 10 10 9 9 9 8 8 8 8 8 7 7 7 7 7 7 7 7 7 7 8 8 8 8 8 9 9 9 9 9 9 9
17 17 17 16 16 15 14 13 12 11 11 10 9 9 9 9 8 8 8 7 7 7 7 7 7 6 6 6 6 6 6 7 7 8 8 8 8 9 9 9 9 9 9
17 17 16 16 15 14 13 12 12 11 11 10 10 10 9 9 9 8 8 8 7 7 7 7 7 6 6 6 6 5 6 6 7 7 8 8 8 9 9 9 9 9 9
16 16 16 15 15 14 13 12 12 11 11 11 10 10 10 9 9 8 8 8 7 7 7 7 6 6 6 5 5 5 5 5 6 7 8 8 8 8 9 9 9 9 9
15 15 15 14 14 13 13 12 12 11 11 11 10 10 10 10 9 9 9 8 8 7 8 7 7 6 6 6 4 4 4 6 6 5 6 7 8 8 8 8 8 8 8
14 14 14 14 13 13 12 12 12 11 11 11 10 10 10 10 9 9 9 8 8 8 8 8 7 6 6 5 4 4 3 5 6 5 5 5 5 6 6 6 7 7 7
14 13 13 13 13 12 12 12 11 11 11 10 10 10 10 10 9 9 9 8 8 8 8 8 7 6 5 5 4 4 3 3 2 3 4 4 4 4 4 4 5 5 6
13 13 12 12 12 12 11 11 11 10 10 10 10 9 9 9 9 8 8 8 8 7 7 7 7 6 5 5 5 4 3 2 1 1 2 3 4 3 3 3 3 3 4
12 12 12 12 11 11 11 11 10 10 9 9 9 8 8 8 8 8 7 7 7 7 7 7 6 6 6 5 5 4 3 2 2 1 1 2 3 3 3 3 2 2 3
Wind_Speed
11 18 22 21 19 17 16 14 13 12 11 10 9 9 9 10 10 10 10 11 11 11 12 12 12 13 13 14 15 15 16 17 17 18 18 17 17 17 16 15 14 15 17
13 21 23 22 20 18 17 15 13 12 11 10 9 9 9 9 9 9 9 10 10 11 11 11 12 12 13 13 14 14 15 15 15 16 15 15 15 16 16 16 16 14 16
15 22 24 23 21 19 17 16 14 13 11 10 9 9 9 8 8 8 8 9 9 10 10 10 11 11 12 12 12 13 14 14 13 13 13 13 13 15 15 15 15 15 15
16 22 22 24 22 20 18 17 15 14 12 11 10 9 8 8 8 7 8 8 8 8 9 9 10 10 11 11 11 12 12 12 12 11 11 12 11 13 13 13 14 14 14
16 21 21 25 23 21 19 17 16 14 13 12 10 9 8 8 7 7 7 7 7 7 8 8 8 9 9 10 10 10 11 10 10 10 11 11 10 11 12 12 12 12 12
16 20 21 25 24 22 20 19 17 15 14 12 11 10 9 8 8 7 7 6 6 6 6 7 7 7 8 8 8 9 9 8 6 8 9 9 9 9 10 10 10 10 11
15 19 21 24 23 22 21 19 18 16 15 14 12 11 10 9 8 7 7 6 5 5 5 5 6 6 6 6 7 7 7 7 5 6 6 8 9 8 8 8 8 8 8
14 18 19 24 23 22 21 20 19 17 16 15 13 12 11 9 9 8 7 6 5 5 4 4 4 4 4 5 5 5 6 4 3 4 4 5 8 6 6 6 6 6 6
13 17 17 21 22 22 21 20 19 18 17 15 14 13 11 10 9 9 8 7 6 5 4 3 3 2 2 3 3 3 3 4 2 2 2 4 7 5 4 4 4 4 4
12 15 17 19 20 20 20 20 19 18 17 16 14 13 12 11 10 10 9 8 7 6 5 4 3 2 1 1 1 1 1 2 2 2 3 3 7 6 4 3 3 3 3
12 14 16 17 18 18 18 19 19 18 17 16 15 14 13 11 11 10 10 9 9 8 7 6 5 5 4 3 2 2 3 4 3 4 5 5 8 8 6 5 5 5 5
14 15 15 16 16 16 15 16 16 16 16 16 14 14 14 11 10 9 8 10 10 9 9 8 7 7 7 6 5 5 6 5 6 6 6 7 10 10 10 9 8 8 8
12 13 14 15 16 15 14 14 13 14 14 15 15 14 12 11 10 10 9 10 11 10 10 8 9 9 8 7 7 8 8 8 8 8 9 10 12 13 13 13 12 12 11
10 13 14 16 16 16 15 14 13 12 12 13 14 14 12 10 10 10 9 10 9 9 9 9 9 10 10 11 11 11 11 10 10 10 10 12 15 16 16 16 16 16 15
10 12 14 15 16 16 15 13 13 13 13 14 13 14 14 11 10 11 11 11 11 11 11 11 11 12 12 12 12 13 13 14 14 13 12 14 17 19 19 20 20 19 19
9 11 12 15 16 16 14 13 13 13 13 14 14 15 16 14 12 11 12 12 12 13 13 13 13 13 12 12 13 15 15 16 16 16 16 15 19 21 22 23 23 23 23
6 8 10 12 14 15 15 15 13 13 13 13 14 15 16 16 15 14 12 12 13 14 15 14 15 14 12 13 14 16 16 17 18 18 18 17 17 20 24 26 26 26 26
2 5 7 8 11 13 13 13 12 12 13 13 13 14 16 17 17 15 13 13 15 14 13 12 12 12 12 13 13 13 14 15 18 20 19 19 19 18 21 26 29 29 29
5 5 6 7 8 9 10 10 10 10 11 12 12 13 14 16 17 16 14 15 15 13 12 11 12 12 13 14 14 14 14 14 16 18 20 22 22 21 21 22 28 31 32
9 8 6 5 5 5 5 6 6 8 8 10 11 12 14 15 16 16 15 16 15 10 11 12 14 13 13 13 14 14 15 16 16 17 19 21 22 24 24 24 23 25 32
12 11 8 6 5 4 4 4 4 5 6 7 10 13 14 15 15 15 13 14 13 11 13 15 14 14 13 12 11 12 15 18 19 17 16 17 19 23 23 24 22 21 21
13 11 10 8 6 4 3 2 2 3 4 5 7 10 12 14 15 14 14 12 12 11 14 15 14 12 11 9 8 9 10 11 13 14 14 15 16 16 18 21 22 22 21
12 11 9 8 6 4 3 2 1 2 3 3 5 6 8 11 13 14 15 14 12 12 12 14 14 15 13 12 11 10 8 8 9 8 11 12 13 13 14 16 19 21 22
10 9 9 8 7 5 3 1 1 2 3 3 4 5 6 8 10 12 13 14 13 12 13 14 14 13 14 13 12 12 14 11 10 10 9 10 13 14 16 14 15 19 21
8 8 8 8 8 5 3 1 1 3 4 4 5 6 6 6 7 9 11 11 12 11 14 14 14 14 13 14 13 12 14 14 16 13 16 16 15 14 15 16 15 16 20
7 7 7 7 7 5 4 2 2 3 5 6 6 6 6 5 5 6 8 9 10 11 12 13 14 16 15 16 15 14 14 13 12 14 17 18 18 16 16 15 15 15 18
Wind_Direction
177 171 173 176 171 169 167 163 158 152 145 137 129 120 112 105 99 96 90 85 79 75 72 71 69 67 64 62 60 58 57 55 54 52 52 57 63 64 63 59 59 59 57
166 169 173 175 172 171 169 167 162 157 153 146 138 129 121 113 107 100 93 88 83 78 74 72 70 69 68 66 63 62 62 60 58 55 54 56 60 63 61 59 59 62 60
161 167 173 175 174 173 172 170 166 163 160 155 149 139 131 124 117 108 100 93 86 81 76 74 72 71 70 68 66 64 63 62 58 55 57 56 57 62 61 59 59 61 61
165 168 174 174 175 175 174 173 171 169 166 162 157 148 141 136 128 119 109 101 93 85 79 76 75 74 73 70 68 65 64 61 57 56 58 52 51 59 58 57 57 58 59
168 172 173 173 176 177 177 176 175 174 172 169 165 159 155 148 139 128 119 109 100 93 85 78 77 75 74 72 70 68 64 58 56 61 58 52 49 57 59 57 56 56 57
171 175 174 176 178 179 180 180 178 178 178 175 172 170 165 159 150 139 131 122 112 103 94 83 77 76 75 74 72 68 62 51 58 61 56 48 42 54 57 56 54 53 53
173 176 176 179 181 182 183 183 182 182 183 181 179 179 175 169 162 154 148 139 130 119 105 92 81 75 74 74 73 67 57 40 50 58 49 42 34 45 50 50 48 50 50
176 177 178 182 184 185 187 187 186 186 188 187 186 187 184 180 175 169 165 159 154 144 130 115 97 81 76 73 72 69 56 32 45 47 39 33 22 33 43 40 38 42 44
181 182 182 184 188 190 191 192 190 191 192 193 192 193 193 190 188 184 180 178 176 170 161 150 134 110 86 81 75 71 62 29 350 13 0 8 1 4 23 22 17 20 25
187 189 188 188 189 192 194 196 195 194 197 198 198 197 197 198 199 196 193 191 191 190 190 190 190 190 183 129 99 110 89 261 306 289 285 320 336 331 331 328 327 329 332
195 197 196 194 192 193 195 195 197 198 201 203 204 200 200 207 206 203 203 194 202 205 209 211 217 220 218 214 212 183 218 265 280 277 273 295 304 304 298 287 282 283 282
200 199 199 199 197 196 196 196 201 203 204 207 209 205 208 211 212 212 190 199 212 217 220 223 226 224 229 234 211 213 250 260 268 264 263 273 281 284 283 277 269 266 266
208 200 203 202 201 200 198 200 202 204 206 209 213 212 210 209 210 214 213 207 216 221 227 219 224 232 237 245 251 251 260 265 263 263 259 258 267 271 273 272 268 263 260
214 207 205 204 204 205 205 204 206 206 207 209 211 212 210 211 215 218 222 224 224 224 230 233 238 239 244 247 251 257 258 256 259 260 259 254 260 263 266 267 266 263 259
219 212 207 205 206 206 210 211 212 213 212 213 213 215 216 219 222 224 229 231 233 235 235 239 244 248 249 252 252 255 257 257 257 256 257 252 254 257 260 262 262 262 260
224 215 206 206 208 207 210 214 216 219 218 221 218 219 220 226 229 230 235 236 239 239 242 246 250 254 255 255 257 256 257 258 257 255 254 254 250 251 253 256 258 259 259
226 213 205 206 208 210 214 219 223 223 224 226 226 226 226 229 233 235 241 242 243 244 246 249 254 256 258 259 260 260 259 258 257 256 255 253 252 248 248 250 253 255 256
174 189 190 194 205 210 215 221 225 228 230 232 234 234 233 235 239 242 245 248 248 248 247 249 253 254 256 258 261 262 259 256 257 257 255 251 249 249 247 246 247 249 251
87 123 155 177 193 205 213 221 228 233 236 239 241 241 241 242 243 244 248 252 253 249 248 251 254 256 260 263 264 266 264 261 259 257 254 252 249 247 247 247 245 246 248
77 90 110 141 167 184 199 215 225 236 240 242 243 244 245 245 244 247 251 255 256 251 250 252 254 257 260 268 274 273 269 264 260 256 255 254 250 246 245 246 246 246 245
74 79 87 104 127 151 166 190 215 234 240 243 245 248 248 248 247 246 250 256 254 250 252 255 257 260 261 264 272 276 269 260 255 252 251 251 250 247 245 244 244 245 246
73 74 79 88 105 133 155 177 222 254 261 262 257 254 253 251 250 248 249 253 254 252 254 257 256 257 260 252 253 278 284 278 253 243 246 246 249 248 245 243 242 241 242
70 69 74 79 90 106 138 161 186 238 259 259 262 263 262 258 255 251 253 255 257 254 256 257 254 251 254 254 238 245 267 275 299 255 240 244 246 248 248 245 243 242 240
75 76 78 80 82 89 116 157 227 277 295 305 305 293 287 274 265 260 258 258 259 256 256 257 255 253 252 256 253 238 244 262 275 284 259 247 249 252 254 252 249 245 242
85 83 83 84 79 79 83 78 299 301 308 312 311 304 303 292 278 270 266 263 261 260 259 260 259 254 249 250 252 251 249 251 252 258 273 274 266 256 254 254 253 250 247
96 90 87 86 79 72 69 55 358 330 322 319 321 319 316 308 297 286 277 269 266 264 263 262 261 258 253 252 251 250 251 250 249 252 264 271 272 269 263 255 252 252 250
Height
1556 1556 1558 1560 1561 1563 1564 1565 1566 1567 1567 1568 1568 1568 1568 1568 1567 1567 1567 1566 1565 1565 1564 1563 1563 1562 1562 1561 1561 1560 1560 1560 1559 1559 1559 1558 1558 1557 1556 1556 1556 1555 1555
1556 1556 1558 1560 1561 1563 1564 1565 1566 1567 1568 1568 1568 1569 1568 1568 1568 1568 1567 1567 1566 1565 1565 1564 1564 1563 1562 1562 1561 1561 1561 1560 1560 1560 1560 1560 1559 1559 1557 1557 1556 1556 1555
1555 1556 1558 1559 1561 1563 1564 1565 1567 1567 1568 1568 1569 1569 1569 1569 1568 1568 1568 1567 1567 1566 1566 1565 1564 1563 1563 1562 1562 1561 1561 1561 1561 1561 1561 1561 1560 1560 1559 1558 1557 1557 1556
1555 1556 1558 1559 1561 1563 1564 1565 1566 1567 1568 1569 1569 1569 1569 1569 1569 1569 1568 1568 1567 1567 1566 1566 1565 1564 1564 1563 1562 1562 1562 1562 1562 1562 1562 1561 1561 1560 1559 1559 1558 1557 1556
1555 1556 1557 1559 1560 1562 1564 1565 1566 1567 1568 1569 1569 1570 1570 1570 1570 1569 1569 1568 1568 1567 1567 1566 1566 1565 1564 1564 1563 1563 1563 1563 1563 1563 1562 1562 1561 1561 1560 1559 1558 1558 1557
1555 1556 1557 1558 1560 1561 1563 1565 1566 1567 1568 1569 1570 1570 1570 1570 1570 1570 1569 1569 1568 1568 1567 1567 1566 1566 1565 1565 1564 1564 1563 1563 1563 1563 1563 1563 1562 1561 1561 1559 1559 1558 1557
1554 1555 1556 1557 1559 1561 1562 1564 1565 1567 1568 1569 1569 1570 1570 1571 1570 1570 1570 1569 1569 1568 1568 1567 1567 1566 1566 1565 1565 1564 1564 1564 1564 1563 1563 1563 1562 1561 1561 1560 1559 1558 1558
1553 1554 1555 1556 1558 1560 1561 1563 1565 1566 1567 1568 1569 1570 1570 1571 1571 1570 1570 1570 1569 1569 1569 1568 1568 1567 1566 1566 1565 1565 1565 1564 1564 1563 1563 1563 1562 1561 1560 1560 1559 1558 1557
1551 1552 1554 1555 1556 1558 1560 1562 1563 1565 1566 1567 1569 1569 1570 1571 1571 1571 1570 1570 1570 1569 1569 1568 1568 1567 1567 1566 1566 1565 1565 1564 1564 1563 1562 1562 1561 1561 1560 1559 1558 1558 1557
1549 1550 1552 1553 1555 1557 1558 1560 1562 1564 1565 1567 1568 1569 1569 1570 1570 1570 1570 1570 1569 1569 1569 1568 1568 1568 1567 1566 1566 1565 1564 1564 1563 1562 1562 1561 1561 1560 1559 1559 1558 1557 1557
1546 1547 1549 1551 1553 1555 1557 1558 1560 1562 1564 1565 1566 1567 1568 1569 1570 1570 1570 1569 1569 1569 1568 1568 1568 1567 1566 1566 1565 1565 1564 1563 1562 1562 1561 1560 1559 1559 1558 1558 1557 1556 1556
1543 1545 1546 1548 1550 1553 1555 1556 1558 1560 1561 1563 1564 1565 1566 1567 1568 1569 1568 1568 1568 1568 1567 1567 1566 1566 1565 1565 1564 1563 1563 1562 1561 1560 1559 1559 1558 1557 1557 1556 1556 1555 1554
1540 1541 1543 1545 1548 1550 1552 1554 1556 1557 1559 1560 1562 1563 1564 1565 1566 1566 1566 1566 1566 1566 1566 1565 1565 1565 1564 1563 1562 1562 1561 1560 1559 1558 1557 1556 1556 1555 1554 1554 1553 1553 1552
1536 1538 1540 1542 1544 1547 1549 1551 1553 1554 1556 1557 1559 1560 1561 1562 1563 1564 1564 1564 1564 1564 1564 1564 1563 1562 1561 1561 1560 1559 1558 1557 1556 1555 1554 1553 1553 1552 1551 1551 1550 1550 1549
1532 1534 1536 1539 1541 1543 1545 1547 1549 1551 1553 1554 1555 1557 1558 1559 1560 1561 1561 1561 1561 1561 1561 1560 1560 1559 1558 1557 1556 1555 1555 1553 1552 1551 1550 1549 1549 1548 1547 1546 1546 1546 1545
1529 1531 1533 1535 1538 1540 1542 1544 1546 1548 1549 1551 1552 1553 1554 1556 1556 1557 1557 1557 1558 1558 1557 1557 1556 1555 1554 1553 1552 1551 1550 1549 1547 1546 1545 1544 1543 1543 1542 1541 1541 1541 1541
1526 1527 1529 1532 1534 1536 1538 1540 1542 1544 1546 1547 1548 1549 1550 1552 1552 1553 1553 1553 1553 1553 1553 1552 1552 1550 1549 1548 1546 1545 1543 1542 1541 1540 1539 1537 1537 1536 1536 1535 1535 1535 1534
1524 1525 1527 1529 1531 1533 1535 1536 1538 1540 1541 1543 1544 1545 1546 1547 1548 1549 1548 1548 1548 1548 1547 1547 1546 1544 1543 1541 1540 1538 1536 1535 1533 1533 1531 1530 1529 1528 1528 1528 1528 1527 1527
1523 1524 1525 1527 1528 1530 1531 1533 1534 1536 1537 1538 1539 1540 1541 1542 1543 1543 1543 1543 1543 1542 1541 1540 1540 1539 1537 1535 1533 1531 1528 1526 1525 1523 1522 1521 1520 1519 1519 1519 1519 1519 1519
1524 1524 1525 1526 1527 1528 1529 1530 1531 1532 1533 1534 1534 1535 1536 1536 1537 1537 1537 1537 1537 1535 1534 1534 1533 1532 1530 1528 1526 1522 1520 1517 1515 1513 1512 1512 1511 1510 1509 1509 1509 1508 1508
1526 1526 1526 1527 1527 1528 1528 1529 1529 1530 1530 1531 1531 1531 1531 1531 1531 1531 1531 1531 1530 1529 1528 1527 1526 1524 1523 1522 1518 1514 1510 1509 1505 1502 1502 1502 1501 1500 1499 1498 1498 1497 1496
1528 1528 1528 1528 1529 1529 1529 1529 1529 1529 1529 1529 1528 1528 1528 1527 1527 1526 1525 1525 1524 1523 1521 1521 1520 1517 1516 1516 1513 1510 1505 1502 1498 1494 1492 1491 1491 1490 1489 1488 1487 1486 1485
1530 1530 1530 1530 1530 1530 1530 1529 1529 1529 1528 1528 1527 1526 1525 1524 1523 1522 1521 1520 1518 1517 1515 1514 1513 1511 1509 1509 1506 1505 1502 1496 1492 1488 1484 1482 1481 1480 1479 1478 1476 1475 1475
1532 1532 1532 1532 1531 1531 1530 1530 1529 1528 1528 1527 1525 1524 1523 1521 1520 1518 1517 1515 1514 1512 1510 1508 1507 1505 1502 1500 1500 1496 1494 1492 1489 1480 1478 1476 1472 1470 1469 1467 1465 1465 1464
1533 1533 1533 1532 1532 1531 1530 1530 1529 1527 1526 1525 1523 1521 1520 1518 1516 1514 1512 1511 1509 1507 1505 1503 1501 1498 1496 1493 1491 1489 1487 1483 1480 1476 1468 1468 1467 1463 1460 1457 1455 1453 1452
1533 1533 1533 1532 1532 1531 1530 1529 1527 1526 1524 1522 1520 1518 1516 1514 1512 1510 1508 1506 1504 1501 1499 1497 1494 1491 1489 1486 1483 1481 1479 1476 1472 1469 1462 1458 1456 1454 1453 1449 1445 1443 1441